This is the latest recevied weather packets stored in our database for station/object N4CRH-13. If no packets are shown the sender has not sent any weather packets the latest 10 day(s).
| Time | Temp. | Humidity | Pressure | Rain* | Wind** | Luminosity | Snow |
|---|---|---|---|---|---|---|---|
| 1777524938 | 3.33° C | 93% | 1299 hPa | 1.27 mm | - | 0 W/m² | - |
| 1777524636 | 3.33° C | 93% | 1298.8 hPa | 0 mm | - | 0 W/m² | - |
| 1777524334 | 3.33° C | 93% | 1298.8 hPa | 1.78 mm | - | 0 W/m² | - |
| 1777524029 | 3.33° C | 94% | 1298.8 hPa | 1.78 mm | - | 0 W/m² | - |
| 1777523726 | 3.89° C | 94% | 1298.8 hPa | 1.27 mm | - | 0 W/m² | - |
| 1777523423 | 3.89° C | 93% | 1299 hPa | 1.27 mm | - | 0 W/m² | - |
| 1777523119 | 3.89° C | 93% | 1298.8 hPa | 1.78 mm | - | 0 W/m² | - |
| 1777522815 | 3.89° C | 92% | 1299 hPa | 1.78 mm | - | 0 W/m² | - |
| 1777522512 | 3.89° C | 91% | 1299 hPa | 0 mm | - | 0 W/m² | - |
| 1777522209 | 3.89° C | 90% | 1299 hPa | 0 mm | - | 0 W/m² | - |
| 1777521906 | 3.89° C | 90% | 1299 hPa | 0 mm | - | 0 W/m² | - |
| 1777521602 | 3.89° C | 90% | 1299 hPa | 0 mm | - | 0 W/m² | - |
| 1777521300 | 3.89° C | 89% | 1298.7 hPa | 0 mm | - | 0 W/m² | - |
| 1777520996 | 3.89° C | 89% | 1298.6 hPa | 0 mm | - | 0 W/m² | - |
| 1777520694 | 3.89° C | 91% | 1298.5 hPa | 0 mm | - | 0 W/m² | - |
| 1777520390 | 3.89° C | 93% | 1298.6 hPa | 0 mm | - | 0 W/m² | - |
| 1777520088 | 3.89° C | 93% | 1298.6 hPa | 0 mm | - | 0 W/m² | - |
| 1777519785 | 3.89° C | 92% | 1298.5 hPa | 0 mm | - | 0 W/m² | - |
| 1777519482 | 3.89° C | 92% | 1298.5 hPa | 0 mm | - | 0 W/m² | - |
| 1777519178 | 3.89° C | 90% | 1298.5 hPa | 0 mm | - | 0 W/m² | - |
| 1777518874 | 4.44° C | 88% | 1298.5 hPa | 0 mm | - | 0 W/m² | - |
| 1777518570 | 3.89° C | 88% | 1298.4 hPa | 0 mm | - | 0 W/m² | - |
| 1777518266 | 3.33° C | 92% | 1298.4 hPa | 0 mm | - | 0 W/m² | - |
| 1777517963 | 3.89° C | 93% | 1298.2 hPa | 0 mm | - | 0 W/m² | - |
| 1777517659 | 3.89° C | 93% | 1298.1 hPa | 0 mm | - | 0 W/m² | - |
* Rain latest hour (hover to see other rain measurements)
** Current wind speed in m/s (hover to see current wind gust speed)